TimeCDT,TemperatureF,Dew PointF,Humidity,Sea Level PressureIn,VisibilityMPH,Wind Direction,Wind SpeedMPH,Gust SpeedMPH,PrecipitationIn,Events,Conditions,WindDirDegrees,DateUTC
12:53 AM,33.1,27.0,78,30.07,10.0,WNW,6.9,-,N/A,,Clear,290,2012-10-30 05:53:00
1:53 AM,37.0,27.0,67,30.06,10.0,NW,4.6,-,N/A,,Clear,320,2012-10-30 06:53:00
2:53 AM,35.1,26.1,70,30.05,10.0,NW,4.6,-,N/A,,Clear,310,2012-10-30 07:53:00
3:53 AM,39.0,27.0,62,30.02,10.0,NW,8.1,-,N/A,,Clear,320,2012-10-30 08:53:00
4:53 AM,37.9,26.1,62,30.02,10.0,NW,6.9,-,N/A,,Clear,320,2012-10-30 09:53:00
5:53 AM,37.4,26.6,65,30.01,10.0,NW,6.9,-,N/A,,Clear,310,2012-10-30 10:53:00
6:53 AM,35.1,27.0,72,30.01,10.0,WNW,8.1,-,N/A,,Clear,300,2012-10-30 11:53:00
7:53 AM,34.0,27.0,75,30.01,10.0,WNW,6.9,-,N/A,,Clear,300,2012-10-30 12:53:00
8:53 AM,41.0,26.1,55,30.01,10.0,NW,8.1,-,N/A,,Clear,310,2012-10-30 13:53:00
9:53 AM,46.0,26.1,46,30.00,10.0,NW,17.3,23.0,N/A,,Clear,320,2012-10-30 14:53:00
10:53 AM,50.0,26.1,39,29.99,10.0,NNW,15.0,23.0,N/A,,Clear,340,2012-10-30 15:53:00
11:53 AM,53.1,26.1,35,29.96,10.0,NNW,20.7,25.3,N/A,,Clear,330,2012-10-30 16:53:00
12:53 PM,57.0,26.1,30,29.93,10.0,NNW,20.7,27.6,N/A,,Clear,340,2012-10-30 17:53:00
1:53 PM,57.9,25.0,28,29.90,10.0,NW,21.9,32.2,N/A,,Clear,320,2012-10-30 18:53:00
2:53 PM,60.1,25.0,26,29.88,10.0,NW,18.4,26.5,N/A,,Clear,310,2012-10-30 19:53:00
3:53 PM,59.0,25.0,27,29.87,10.0,NW,17.3,24.2,N/A,,Clear,320,2012-10-30 20:53:00
4:53 PM,57.9,26.1,30,29.87,10.0,WNW,16.1,21.9,N/A,,Clear,300,2012-10-30 21:53:00
5:53 PM,54.0,26.1,34,29.88,10.0,WNW,10.4,-,N/A,,Clear,300,2012-10-30 22:53:00
6:53 PM,46.4,28.4,50,29.89,10.0,WNW,8.1,-,N/A,,Clear,300,2012-10-30 23:53:00
7:53 PM,42.1,28.0,58,29.90,10.0,WNW,6.9,-,N/A,,Clear,300,2012-10-31 00:53:00
8:53 PM,41.0,28.0,60,29.91,10.0,WNW,5.8,-,N/A,,Clear,300,2012-10-31 01:53:00
9:53 PM,39.0,28.0,65,29.93,10.0,West,8.1,-,N/A,,Clear,260,2012-10-31 02:53:00
10:53 PM,39.9,28.0,63,29.92,10.0,West,8.1,-,N/A,,Clear,260,2012-10-31 03:53:00
11:53 PM,37.9,28.0,68,29.92,10.0,West,8.1,-,N/A,,Clear,260,2012-10-31 04:53:00